Location: Academy at Carrie F Thomas
(32.8490°N, 97.2053°W)
Time: 19:39:23
(UTC+00:00)

Cosmos 1515 Rocket - Pass Details

Date: 30 June 2022
Orbit: 604 x 630 km, 82.5° (Epoch: 17 August)

Event Time Altitude Azimuth Distance (km) Brightness Sun altitude
Rises 09:20:51 0° 2° (N) 2,897 7.8 -21.1°
Reaches altitude 10° 09:23:12 10° 9° (N) 1,983 7.0 -20.8°
Maximum altitude 09:27:21 41° 80° (E) 891 4.7 -20.2°
Drops below altitude 10° 09:31:27 10° 151° (SSE) 1,956 5.9 -19.6°
Enters shadow 09:31:36 - 152° (SSE) 2,010 6.0 -19.6°
